Simultaneous Nadir Overpasses (SNOs) Predictions

Prediction of SNOs between FY3D and TERRA Satellite Orbit:

Table of predicted SNOs for the next 14.0 days since TLE Epoch: 6/17/2023
Index Date (FY3D) Time (FY3D) Lat,Lon (FY3D) SZA (FY3D ) Date (TERRA) Time (TERRA) Lat,Lon (TERRA) SZA (TERRA ) Distance(km) Time Diff (sec)
1 06/19/2023 01:16:36 73.61, 160.69 50.11 06/19/2023 01:17:30 73.61, 160.73 50.10 1.60 54
2 06/19/2023 02:07:19 -73.51, -31.74 130.01 06/19/2023 02:06:55 -73.54, -31.76 129.98 3.48 24
3 06/21/2023 13:20:42 -73.59, 159.76 129.95 06/21/2023 13:21:30 -73.59, 159.68 129.94 2.65 48
4 06/21/2023 14:11:27 73.52, -32.78 49.99 06/21/2023 14:10:52 73.51, -32.82 49.98 1.52 35
5 06/24/2023 01:24:50 73.61, 158.72 50.10 06/24/2023 01:25:26 73.59, 158.67 50.08 2.28 36
6 06/24/2023 02:15:33 -73.55, -33.83 129.96 06/24/2023 02:14:50 -73.53, -33.80 129.98 1.99 43
7 06/26/2023 13:28:55 -73.59, 157.77 129.86 06/26/2023 13:29:24 -73.59, 157.66 129.86 3.51 29
8 06/26/2023 14:19:40 73.52, -34.77 50.08 06/26/2023 14:18:46 73.51, -34.86 50.06 3.68 54
9 06/29/2023 01:33:03 73.62, 156.70 50.28 06/29/2023 01:33:18 73.64, 156.75 50.30 2.98 15



Historial Predications of SNOs between FY3D and TERRA
